,,Stat5,,Stat1,,Stat2,,Stat3,,Stat4,,Wind1,,Wind1,
time,status,PA1M_AVG,status,PR1M_SUM,status,RH1M_AVG,status,SR1M_AVG,status,TA1M_AVG,status,W1dAve1m,status,W1sAve1m,
2002-12-12, 00:00:00,VALID,920.752,VALID,0,VALID,95.6196,VALID,0,VALID,19.8424,VALID,87,VALID,1.10022,
2002-12-12, 00:01:00,VALID,920.752,VALID,0,VALID,95.6221,VALID,0,VALID,19.8391,VALID,81,VALID,0.768159,
2002-12-12, 00:02:00,VALID,920.743,VALID,0,VALID,95.5585,VALID,0.0169808,VALID,19.8356,VALID,94,VALID,1.28063,
2002-12-12, 00:03:00,VALID,920.731,VALID,0,VALID,95.4848,VALID,0,VALID,19.8521,VALID,109,VALID,1.06947,
2002-12-12, 00:04:00,VALID,920.722,VALID,0,VALID,95.3678,VALID,0.0169808,VALID,19.8712,VALID,102,VALID,1.10754,
2002-12-12, 00:05:00,VALID,920.723,VALID,0,VALID,95.294,VALID,0,VALID,19.8973,VALID,87,VALID,0.901242,
2002-12-12, 00:06:00,VALID,920.729,VALID,0,VALID,95.1694,VALID,0.0339617,VALID,19.9037,VALID,90,VALID,1.10637,
2002-12-12, 00:07:00,VALID,920.737,VALID,0,VALID,95.1313,VALID,0,VALID,19.9199,VALID,83,VALID,1.35265,
2002-12-12, 00:08:00,VALID,920.737,VALID,0,VALID,95.0842,VALID,0.0169808,VALID,19.9328,VALID,115,VALID,1.09635,
2002-12-12, 00:09:00,VALID,920.74,VALID,0,VALID,95.1529,VALID,0,VALID,19.9495,VALID,94,VALID,0.558488,
2002-12-12, 00:10:00,VALID,920.734,VALID,0,VALID,95.1529,VALID,0,VALID,19.9428,VALID,113,VALID,1.19869,
2002-12-12, 00:11:00,VALID,920.744,VALID,0,VALID,95.1198,VALID,0,VALID,19.9296,VALID,112,VALID,1.41546,
2002-12-12, 00:12:00,VALID,920.749,VALID,0,VALID,95.1071,VALID,0.0339617,VALID,19.936,VALID,102,VALID,0.983553,
2002-12-12, 00:13:00,VALID,920.763,VALID,0,VALID,94.9609,VALID,0.0339617,VALID,19.936,VALID,110,VALID,1.35855,
2002-12-12, 00:14:00,VALID,920.78,VALID,0,VALID,94.8642,VALID,0.0169808,VALID,19.9492,VALID,104,VALID,1.61381,
2002-12-12, 00:15:00,VALID,920.79,VALID,0,VALID,94.9024,VALID,0.0169808,VALID,19.992,VALID,105,VALID,0.875651,
2002-12-12, 00:16:00,VALID,920.798,VALID,0,VALID,94.6977,VALID,0.0169808,VALID,19.9845,VALID,126,VALID,1.72931,
2002-12-12, 00:17:00,VALID,920.798,VALID,0,VALID,94.6811,VALID,0.0339617,VALID,19.9972,VALID,127,VALID,1.2463,
2002-12-12, 00:18:00,VALID,920.817,VALID,0,VALID,94.6811,VALID,0,VALID,20.0039,VALID,129,VALID,1.03726,
2002-12-12, 00:19:00,VALID,920.804,VALID,0,VALID,94.6201,VALID,0.0169808,VALID,20.0168,VALID,131,VALID,1.6272,
2002-12-12, 00:20:00,VALID,920.793,VALID,0,VALID,94.6481,VALID,0.0169808,VALID,20.02,VALID,119,VALID,1.12774,
2002-12-12, 00:21:00,VALID,920.803,VALID,0,VALID,94.7155,VALID,0,VALID,20.0203,VALID,116,VALID,1.5403,
2002-12-12, 00:22:00,VALID,920.811,VALID,0,VALID,94.7104,VALID,0,VALID,20.0039,VALID,119,VALID,1.51022,
2002-12-12, 00:23:00,VALID,920.806,VALID,0,VALID,94.7473,VALID,0,VALID,20.0071,VALID,116,VALID,1.07913,
2002-12-12, 00:24:00,VALID,920.799,VALID,0,VALID,94.6913,VALID,0,VALID,20.0039,VALID,128,VALID,1.49678,
2002-12-12, 00:25:00,VALID,920.79,VALID,0,VALID,94.6315,VALID,0,VALID,20.0074,VALID,121,VALID,2.02467,
2002-12-12, 00:26:00,VALID,920.772,VALID,0,VALID,94.5222,VALID,0,VALID,20.0071,VALID,104,VALID,1.65921,
2002-12-12, 00:27:00,VALID,920.745,VALID,0,VALID,94.4243,VALID,0.0169808,VALID,20.0136,VALID,110,VALID,1.4974,
2002-12-12, 00:28:00,VALID,920.744,VALID,0,VALID,94.3378,VALID,0,VALID,20.033,VALID,137,VALID,0.943142,
2002-12-12, 00:29:00,VALID,920.741,VALID,0,VALID,94.2361,VALID,0,VALID,20.0556,VALID,110,VALID,1.63713,
2002-12-12, 00:30:00,VALID,920.749,VALID,0,VALID,94.2323,VALID,0,VALID,20.0556,VALID,99,VALID,1.65851,
2002-12-12, 00:31:00,VALID,920.755,VALID,0,VALID,94.3836,VALID,0,VALID,20.0494,VALID,97,VALID,1.03906,
2002-12-12, 00:32:00,VALID,920.751,VALID,0,VALID,94.3454,VALID,0,VALID,20.0526,VALID,115,VALID,1.40179,
2002-12-12, 00:33:00,VALID,920.749,VALID,0,VALID,94.4014,VALID,0.0169808,VALID,20.0499,VALID,117,VALID,1.30674,
2002-12-12, 00:34:00,VALID,920.775,VALID,0,VALID,94.4713,VALID,0,VALID,20.033,VALID,113,VALID,1.3113,
2002-12-12, 00:35:00,VALID,920.79,VALID,0,VALID,94.3594,VALID,0,VALID,20.0198,VALID,107,VALID,2.0127,
2002-12-12, 00:36:00,VALID,920.778,VALID,0,VALID,94.2412,VALID,-0.0169808,VALID,20.0402,VALID,115,VALID,2.06414,
2002-12-12, 00:37:00,VALID,920.777,VALID,0,VALID,94.2628,VALID,-0.0679233,VALID,20.0442,VALID,121,VALID,1.56127,
2002-12-12, 00:38:00,VALID,920.8,VALID,0,VALID,94.1878,VALID,-0.0849042,VALID,20.0474,VALID,119,VALID,1.3123,
2002-12-12, 00:39:00,VALID,920.794,VALID,0,VALID,94.2666,VALID,-0.0849042,VALID,20.0536,VALID,97,VALID,1.38401,
2002-12-12, 00:40:00,VALID,920.776,VALID,0,VALID,94.3454,VALID,-0.0849042,VALID,20.0606,VALID,95,VALID,1.49079,
2002-12-12, 00:41:00,VALID,920.771,VALID,0,VALID,94.3963,VALID,-0.0849042,VALID,20.0407,VALID,113,VALID,1.30423,
2002-12-12, 00:42:00,VALID,920.76,VALID,0,VALID,94.5082,VALID,-0.101885,VALID,20.0342,VALID,97,VALID,1.53086,
2002-12-12, 00:43:00,VALID,920.757,VALID,0,VALID,94.554,VALID,-0.0849042,VALID,20.0285,VALID,88,VALID,1.34266,
2002-12-12, 00:44:00,VALID,920.754,VALID,0,VALID,94.5909,VALID,-0.0849042,VALID,20.0153,VALID,93,VALID,1.19835,
2002-12-12, 00:45:00,VALID,920.741,VALID,0,VALID,94.6557,VALID,-0.101885,VALID,20.0091,VALID,103,VALID,1.03716,
2002-12-12, 00:46:00,VALID,920.729,VALID,0,VALID,94.5692,VALID,-0.0509425,VALID,19.9987,VALID,120,VALID,1.62192,
2002-12-12, 00:47:00,VALID,920.727,VALID,0,VALID,94.4637,VALID,-0.0849042,VALID,20.0119,VALID,102,VALID,1.31597,
2002-12-12, 00:48:00,VALID,920.714,VALID,0,VALID,94.4522,VALID,-0.101885,VALID,20.0216,VALID,133,VALID,1.50908,
2002-12-12, 00:49:00,VALID,920.699,VALID,0,VALID,94.3454,VALID,-0.101885,VALID,20.0283,VALID,121,VALID,1.44119,
2002-12-12, 00:50:00,VALID,920.706,VALID,0,VALID,94.3848,VALID,-0.0679233,VALID,20.0407,VALID,75,VALID,1.10341,
2002-12-12, 00:51:00,VALID,920.706,VALID,0,VALID,94.4624,VALID,-0.0679233,VALID,20.0469,VALID,106,VALID,1.4337,
2002-12-12, 00:52:00,VALID,920.707,VALID,0,VALID,94.6048,VALID,0.0339617,VALID,20.0195,VALID,126,VALID,0.947599,
2002-12-12, 00:53:00,VALID,920.722,VALID,0,VALID,94.69,VALID,0.0339617,VALID,20.0002,VALID,132,VALID,1.42422,
2002-12-12, 00:54:00,VALID,920.73,VALID,0,VALID,94.6112,VALID,0.0849042,VALID,19.9972,VALID,99,VALID,1.66941,
2002-12-12, 00:55:00,VALID,920.738,VALID,0,VALID,94.6506,VALID,0,VALID,20.0004,VALID,84,VALID,0.899704,
2002-12-12, 00:56:00,VALID,920.737,VALID,0,VALID,94.671,VALID,0.0339617,VALID,20.0039,VALID,112,VALID,1.76172,
2002-12-12, 00:57:00,VALID,920.721,VALID,0,VALID,94.7129,VALID,0.0509425,VALID,19.9942,VALID,96,VALID,1.19223,
2002-12-12, 00:58:00,VALID,920.728,VALID,0,VALID,94.7053,VALID,0,VALID,19.991,VALID,120,VALID,1.88125,
2002-12-12, 00:59:00,VALID,920.723,VALID,0,VALID,94.5578,VALID,0.0169808,VALID,19.9875,VALID,115,VALID,1.72957,
2002-12-12, 01:00:00,VALID,920.694,VALID,0,VALID,94.4357,VALID,0,VALID,20.0009,VALID,108,VALID,1.65061,
2002-12-12, 01:01:00,VALID,920.678,VALID,0,VALID,94.4243,VALID,0,VALID,20.0101,VALID,114,VALID,1.47044,
2002-12-12, 01:02:00,VALID,920.664,VALID,0,VALID,94.5349,VALID,0.0169808,VALID,20.0233,VALID,118,VALID,1.59615,
2002-12-12, 01:03:00,VALID,920.648,VALID,0,VALID,94.5273,VALID,0.0339617,VALID,20.0071,VALID,109,VALID,1.59745,
2002-12-12, 01:04:00,VALID,920.608,VALID,0,VALID,94.5909,VALID,0.0169808,VALID,20.0002,VALID,128,VALID,1.0771,
2002-12-12, 01:05:00,VALID,920.61,VALID,0,VALID,94.6633,VALID,0.0339617,VALID,19.9972,VALID,109,VALID,1.04096,
2002-12-12, 01:06:00,VALID,920.596,VALID,0,VALID,94.657,VALID,0.0169808,VALID,19.9972,VALID,113,VALID,0.916016,
2002-12-12, 01:07:00,VALID,920.585,VALID,0,VALID,94.6888,VALID,0,VALID,19.991,VALID,110,VALID,1.31018,
2002-12-12, 01:08:00,VALID,920.569,VALID,0,VALID,94.6582,VALID,0,VALID,19.9808,VALID,118,VALID,1.14535,
2002-12-12, 01:09:00,VALID,920.565,VALID,0,VALID,94.6735,VALID,0,VALID,20.0007,VALID,125,VALID,0.874399,
2002-12-12, 01:10:00,VALID,920.567,VALID,0,VALID,94.601,VALID,0.0339617,VALID,19.9843,VALID,112,VALID,1.13902,
2002-12-12, 01:11:00,VALID,920.552,VALID,0,VALID,94.4154,VALID,0.0509425,VALID,19.9967,VALID,134,VALID,1.25739,
2002-12-12, 01:12:00,VALID,920.56,VALID,0,VALID,94.3505,VALID,0.0339617,VALID,20.0131,VALID,115,VALID,0.786801,
2002-12-12, 01:13:00,VALID,920.55,VALID,0,VALID,94.1674,VALID,0.0339617,VALID,20.0295,VALID,142,VALID,1.33333,
2002-12-12, 01:14:00,VALID,920.53,VALID,0,VALID,94.0123,VALID,0.0339617,VALID,20.0459,VALID,140,VALID,1.84054,
2002-12-12, 01:15:00,VALID,920.525,VALID,0,VALID,93.8406,VALID,0.0169808,VALID,20.0685,VALID,146,VALID,1.71392,
2002-12-12, 01:16:00,VALID,920.51,VALID,0,VALID,93.5481,VALID,0.0169808,VALID,20.1038,VALID,144,VALID,1.43935,
2002-12-12, 01:17:00,VALID,920.493,VALID,0,VALID,93.4591,VALID,0.0169808,VALID,20.1391,VALID,146,VALID,1.71009,
2002-12-12, 01:18:00,VALID,920.484,VALID,0,VALID,92.9823,VALID,0.0339617,VALID,20.1657,VALID,148,VALID,2.21615,
2002-12-12, 01:19:00,VALID,920.463,VALID,0,VALID,92.8297,VALID,0,VALID,20.2107,VALID,136,VALID,1.75629,
2002-12-12, 01:20:00,VALID,920.447,VALID,0,VALID,92.7686,VALID,0,VALID,20.24,VALID,145,VALID,2.08039,
2002-12-12, 01:21:00,VALID,920.435,VALID,0,VALID,92.672,VALID,-0.0169808,VALID,20.2532,VALID,145,VALID,1.96197,
2002-12-12, 01:22:00,VALID,920.413,VALID,0,VALID,92.6046,VALID,-0.101885,VALID,20.2709,VALID,137,VALID,1.58963,
2002-12-12, 01:23:00,VALID,920.392,VALID,0,VALID,92.7127,VALID,-0.101885,VALID,20.2574,VALID,144,VALID,1.05692,
2002-12-12, 01:24:00,VALID,920.379,VALID,0,VALID,92.6389,VALID,-0.101885,VALID,20.2607,VALID,151,VALID,1.93873,
2002-12-12, 01:25:00,VALID,920.357,VALID,0,VALID,92.6339,VALID,-0.101885,VALID,20.251,VALID,140,VALID,1.63121,
2002-12-12, 01:26:00,VALID,920.349,VALID,0,VALID,92.6453,VALID,-0.0849042,VALID,20.2542,VALID,159,VALID,1.3707,
2002-12-12, 01:27:00,VALID,920.321,VALID,0,VALID,92.5194,VALID,-0.0679233,VALID,20.2507,VALID,144,VALID,2.20127,
2002-12-12, 01:28:00,VALID,920.289,VALID,0,VALID,92.5372,VALID,-0.101885,VALID,20.2607,VALID,141,VALID,1.59293,
2002-12-12, 01:29:00,VALID,920.245,VALID,0,VALID,92.5258,VALID,-0.0679233,VALID,20.2664,VALID,130,VALID,1.20373,
2002-12-12, 01:30:00,VALID,920.224,VALID,0,VALID,92.6351,VALID,-0.0679233,VALID,20.2825,VALID,139,VALID,1.02364,
2002-12-12, 01:31:00,VALID,920.192,VALID,0,VALID,92.714,VALID,-0.0849042,VALID,20.2664,VALID,120,VALID,1.16787,
2002-12-12, 01:32:00,VALID,920.162,VALID,0,VALID,92.6313,VALID,-0.0339617,VALID,20.2604,VALID,127,VALID,1.67004,
2002-12-12, 01:33:00,VALID,920.127,VALID,0,VALID,92.714,VALID,-0.0849042,VALID,20.2472,VALID,147,VALID,1.77988,
2002-12-12, 01:34:00,VALID,919.68,VALID,0,VALID,92.5703,VALID,-0.101885,VALID,20.2408,VALID,135,VALID,1.92925,
2002-12-12, 01:35:00,VALID,920.092,VALID,0,VALID,92.7623,VALID,-0.0679233,VALID,20.2505,VALID,146,VALID,0.830512,
2002-12-12, 01:36:00,VALID,920.064,VALID,0,VALID,92.6987,VALID,-0.0509425,VALID,20.2472,VALID,120,VALID,1.35579,
2002-12-12, 01:37:00,VALID,920.055,VALID,0,VALID,92.5474,VALID,0.0509425,VALID,20.2425,VALID,123,VALID,1.96053,
2002-12-12, 01:38:00,VALID,920.03,VALID,0,VALID,92.3859,VALID,0.0169808,VALID,20.2551,VALID,109,VALID,1.77561,
2002-12-12, 01:39:00,VALID,920.051,VALID,0,VALID,92.3388,VALID,0.0339617,VALID,20.2847,VALID,126,VALID,1.69679,
2002-12-12, 01:40:00,VALID,920.024,VALID,0,VALID,92.3884,VALID,0.0339617,VALID,20.2944,VALID,146,VALID,0.979167,
2002-12-12, 01:41:00,VALID,920.028,VALID,0,VALID,92.3859,VALID,0.0169808,VALID,20.2904,VALID,121,VALID,1.06373,
2002-12-12, 01:42:00,VALID,920.008,VALID,0,VALID,92.4431,VALID,0.0339617,VALID,20.2912,VALID,148,VALID,0.852196,
2002-12-12, 01:43:00,VALID,920.029,VALID,0,VALID,92.4342,VALID,0.0509425,VALID,20.2842,VALID,135,VALID,1.19703,
2002-12-12, 01:44:00,VALID,920.026,VALID,0,VALID,92.3605,VALID,0.0509425,VALID,20.2879,VALID,139,VALID,1.49551,
2002-12-12, 01:45:00,VALID,920.029,VALID,0,VALID,92.4685,VALID,0.0339617,VALID,20.2912,VALID,150,VALID,1.34498,
2002-12-12, 01:46:00,VALID,920.027,VALID,0,VALID,92.5181,VALID,0.0339617,VALID,20.2845,VALID,134,VALID,1.5038,
2002-12-12, 01:47:00,VALID,920.012,VALID,0,VALID,92.7496,VALID,0,VALID,20.2683,VALID,102,VALID,1.05938,
2002-12-12, 01:48:00,VALID,920.025,VALID,0,VALID,92.9645,VALID,0.0169808,VALID,20.2459,VALID,119,VALID,1.37479,
2002-12-12, 01:49:00,VALID,920.025,VALID,0,VALID,93.1183,VALID,0.0169808,VALID,20.2074,VALID,122,VALID,1.38728,
2002-12-12, 01:50:00,VALID,920.027,VALID,0,VALID,93.2646,VALID,0.0169808,VALID,20.1811,VALID,129,VALID,0.895032,
2002-12-12, 01:51:00,VALID,920.027,VALID,0,VALID,93.3803,VALID,0,VALID,20.1687,VALID,122,VALID,0.833333,
2002-12-12, 01:52:00,VALID,920.028,VALID,0,VALID,93.4922,VALID,0.0509425,VALID,20.1495,VALID,95,VALID,1.07791,
2002-12-12, 01:53:00,VALID,920.031,VALID,0,VALID,93.6054,VALID,0.0339617,VALID,20.1366,VALID,98,VALID,1.1256,
2002-12-12, 01:54:00,VALID,920.026,VALID,0,VALID,93.7249,VALID,0.0169808,VALID,20.1108,VALID,120,VALID,1.47163,
2002-12-12, 01:55:00,VALID,920.002,VALID,0,VALID,93.7999,VALID,0.0339617,VALID,20.0904,VALID,141,VALID,0.952919,
2002-12-12, 01:56:00,VALID,919.992,VALID,0,VALID,93.9042,VALID,0.0339617,VALID,20.0814,VALID,117,VALID,1.15541,
2002-12-12, 01:57:00,VALID,919.98,VALID,0,VALID,94.0097,VALID,0.0339617,VALID,20.0747,VALID,103,VALID,1.21766,
2002-12-12, 01:58:00,VALID,919.959,VALID,0,VALID,94.1051,VALID,0.0169808,VALID,20.0556,VALID,116,VALID,1.14358,
2002-12-12, 01:59:00,VALID,919.519,VALID,0,VALID,94.2323,VALID,0.0509425,VALID,20.0362,VALID,101,VALID,0.909745,
2002-12-12, 02:00:00,VALID,919.92,VALID,0,VALID,94.3861,VALID,0.0509425,VALID,20.0101,VALID,119,VALID,0.820913,
2002-12-12, 02:01:00,VALID,919.89,VALID,0,VALID,94.4917,VALID,0.0509425,VALID,20.0007,VALID,133,VALID,0.811498,
2002-12-12, 02:02:00,VALID,919.886,VALID,0,VALID,94.4077,VALID,0.0339617,VALID,19.9912,VALID,146,VALID,1.51541,
2002-12-12, 02:03:00,VALID,919.866,VALID,0,VALID,94.1738,VALID,0.0679233,VALID,19.991,VALID,135,VALID,1.49918,
2002-12-12, 02:04:00,VALID,919.87,VALID,0,VALID,94.0937,VALID,0.0169808,VALID,20.0203,VALID,108,VALID,0.950321,
2002-12-12, 02:05:00,VALID,919.861,VALID,0,VALID,94.0186,VALID,0.0679233,VALID,20.0263,VALID,94,VALID,1.41426,
2002-12-12, 02:06:00,VALID,919.852,VALID,0,VALID,94.0517,VALID,0.0169808,VALID,20.0365,VALID,107,VALID,1.31503,
2002-12-12, 02:07:00,VALID,919.831,VALID,0,VALID,94.0059,VALID,-0.0509425,VALID,20.0377,VALID,110,VALID,1.5919,
2002-12-12, 02:08:00,VALID,919.805,VALID,0,VALID,93.8609,VALID,-0.101885,VALID,20.0509,VALID,108,VALID,1.49937,
2002-12-12, 02:09:00,VALID,919.808,VALID,0,VALID,93.7134,VALID,-0.0849042,VALID,20.0633,VALID,121,VALID,1.61502,
2002-12-12, 02:10:00,VALID,919.792,VALID,0,VALID,93.5812,VALID,-0.0679233,VALID,20.0792,VALID,133,VALID,1.57791,
2002-12-12, 02:11:00,VALID,919.78,VALID,0,VALID,93.4553,VALID,-0.0339617,VALID,20.0924,VALID,121,VALID,1.40399,
2002-12-12, 02:12:00,VALID,919.77,VALID,0,VALID,93.4222,VALID,-0.0509425,VALID,20.1085,VALID,111,VALID,1.23951,
2002-12-12, 02:13:00,VALID,919.739,VALID,0,VALID,93.4057,VALID,-0.101885,VALID,20.122,VALID,104,VALID,1.59983,
2002-12-12, 02:14:00,VALID,919.729,VALID,0,VALID,93.4375,VALID,-0.0849042,VALID,20.1085,VALID,120,VALID,1.64688,
2002-12-12, 02:15:00,VALID,919.706,VALID,0,VALID,93.3192,VALID,-0.0679233,VALID,20.1056,VALID,126,VALID,1.37377,
2002-12-12, 02:16:00,VALID,919.694,VALID,0,VALID,93.1488,VALID,-0.0679233,VALID,20.1282,VALID,141,VALID,1.64143,
2002-12-12, 02:17:00,VALID,919.669,VALID,0,VALID,93.084,VALID,-0.0509425,VALID,20.1538,VALID,79,VALID,1.15957,
2002-12-12, 02:18:00,VALID,919.65,VALID,0,VALID,92.8856,VALID,-0.0509425,VALID,20.1699,VALID,132,VALID,1.31086,
2002-12-12, 02:19:00,VALID,919.639,VALID,0,VALID,92.7203,VALID,-0.0509425,VALID,20.1925,VALID,105,VALID,1.13158,
2002-12-12, 02:20:00,VALID,919.651,VALID,0,VALID,92.6084,VALID,-0.0679233,VALID,20.2219,VALID,115,VALID,1.3774,
2002-12-12, 02:21:00,VALID,919.654,VALID,0,VALID,92.6491,VALID,-0.0509425,VALID,20.2216,VALID,113,VALID,1.4998,
2002-12-12, 02:22:00,VALID,919.652,VALID,0,VALID,92.7496,VALID,-0.0849042,VALID,20.2152,VALID,121,VALID,1.01943,
2002-12-12, 02:23:00,VALID,919.649,VALID,0,VALID,92.7661,VALID,-0.0339617,VALID,20.2119,VALID,107,VALID,1.52344,
2002-12-12, 02:24:00,VALID,919.647,VALID,0,VALID,92.8335,VALID,-0.0339617,VALID,20.2022,VALID,90,VALID,0.718359,
2002-12-12, 02:25:00,VALID,919.633,VALID,0,VALID,92.9111,VALID,-0.0679233,VALID,20.2057,VALID,116,VALID,1.00694,
2002-12-12, 02:26:00,VALID,919.612,VALID,0,VALID,92.8729,VALID,-0.0339617,VALID,20.202,VALID,99,VALID,1.37153,
2002-12-12, 02:27:00,VALID,919.587,VALID,0,VALID,92.8475,VALID,-0.0849042,VALID,20.2087,VALID,89,VALID,1.03547,
2002-12-12, 02:28:00,VALID,919.566,VALID,0,VALID,92.7928,VALID,-0.0509425,VALID,20.2318,VALID,120,VALID,1.6102,
2002-12-12, 02:29:00,VALID,919.55,VALID,0,VALID,92.7203,VALID,-0.0509425,VALID,20.2346,VALID,121,VALID,1.44249,
2002-12-12, 02:30:00,VALID,919.529,VALID,0,VALID,92.4215,VALID,-0.0849042,VALID,20.2636,VALID,130,VALID,1.65688,
2002-12-12, 02:31:00,VALID,919.512,VALID,0,VALID,91.9128,VALID,-0.101885,VALID,20.3061,VALID,139,VALID,1.42231,
2002-12-12, 02:32:00,VALID,919.507,VALID,0,VALID,91.5771,VALID,-0.0679233,VALID,20.3772,VALID,102,VALID,1.27138,
2002-12-12, 02:33:00,VALID,919.493,VALID,0,VALID,91.2275,VALID,-0.0849042,VALID,20.4384,VALID,115,VALID,1.28737,
2002-12-12, 02:34:00,VALID,919.481,VALID,0,VALID,90.9579,VALID,-0.0679233,VALID,20.4839,VALID,86,VALID,1.26086,
2002-12-12, 02:35:00,VALID,919.477,VALID,0,VALID,90.9591,VALID,-0.0679233,VALID,20.5224,VALID,69,VALID,1.09258,
2002-12-12, 02:36:00,VALID,919.474,VALID,0,VALID,91.0456,VALID,-0.0509425,VALID,20.5286,VALID,61,VALID,0.908923,
2002-12-12, 02:37:00,VALID,919.474,VALID,0,VALID,91.2389,VALID,0.0339617,VALID,20.5079,VALID,70,VALID,0.657306,
2002-12-12, 02:38:00,VALID,919.472,VALID,0,VALID,91.4385,VALID,0.0169808,VALID,20.4729,VALID,87,VALID,0.450391,
2002-12-12, 02:39:00,VALID,919.492,VALID,0,VALID,91.6547,VALID,0.0169808,VALID,20.4239,VALID,90,VALID,0.99815,
2002-12-12, 02:40:00,VALID,919.489,VALID,0,VALID,91.9306,VALID,0.0169808,VALID,20.3849,VALID,86,VALID,0.798661,
2002-12-12, 02:41:00,VALID,919.506,VALID,0,VALID,92.2168,VALID,0,VALID,20.3334,VALID,77,VALID,0.694111,
2002-12-12, 02:42:00,VALID,919.518,VALID,0,VALID,92.5118,VALID,0.0509425,VALID,20.2783,VALID,76,VALID,0.743924,
2002-12-12, 02:43:00,VALID,919.53,VALID,0,VALID,92.761,VALID,0.0339617,VALID,20.2298,VALID,74,VALID,0.402027,
2002-12-12, 02:44:00,VALID,919.525,VALID,0,VALID,92.9874,VALID,0.0339617,VALID,20.1918,VALID,72,VALID,0.426082,
2002-12-12, 02:45:00,VALID,919.536,VALID,0,VALID,93.1857,VALID,0.0169808,VALID,20.1625,VALID,92,VALID,0.440789,
2002-12-12, 02:46:00,VALID,919.545,VALID,0,VALID,93.3841,VALID,0.0339617,VALID,20.1269,VALID,84,VALID,0.301604,
2002-12-12, 02:47:00,VALID,919.538,VALID,0,VALID,93.5011,VALID,0,VALID,20.1105,VALID,96,VALID,0.168074,
2002-12-12, 02:48:00,VALID,919.539,VALID,0,VALID,93.6244,VALID,0.0339617,VALID,20.0847,VALID,97,VALID,0.136502,
2002-12-12, 02:49:00,VALID,919.542,VALID,0,VALID,93.7503,VALID,0.0169808,VALID,20.0588,VALID,100,VALID,0,
2002-12-12, 02:50:00,VALID,919.534,VALID,0,VALID,93.9182,VALID,0.0169808,VALID,20.0499,VALID,91,VALID,0.123355,
2002-12-12, 02:51:00,VALID,919.522,VALID,0,VALID,93.9907,VALID,-0.0339617,VALID,20.0268,VALID,86,VALID,0.0068109,
2002-12-12, 02:52:00,VALID,919.512,VALID,0,VALID,94.0962,VALID,-0.101885,VALID,20.0089,VALID,86,VALID,0.0344551,
2002-12-12, 02:53:00,VALID,919.511,VALID,0,VALID,94.1814,VALID,-0.0849042,VALID,19.9922,VALID,112,VALID,0.22234,
2002-12-12, 02:54:00,VALID,919.504,VALID,0,VALID,94.2335,VALID,-0.0849042,VALID,19.9796,VALID,133,VALID,0.333882,
2002-12-12, 02:55:00,VALID,919.501,VALID,0,VALID,94.2437,VALID,-0.101885,VALID,19.9766,VALID,134,VALID,0.491787,
2002-12-12, 02:56:00,VALID,919.505,VALID,0,VALID,94.2717,VALID,-0.0509425,VALID,19.9892,VALID,133,VALID,0.518029,
2002-12-12, 02:57:00,VALID,919.513,VALID,0,VALID,94.2653,VALID,-0.101885,VALID,19.9892,VALID,129,VALID,0.492877,
2002-12-12, 02:58:00,VALID,919.515,VALID,0,VALID,94.2577,VALID,-0.0849042,VALID,20.0057,VALID,139,VALID,0.753495,
2002-12-12, 02:59:00,VALID,919.505,VALID,0,VALID,94.1254,VALID,-0.101885,VALID,20.0151,VALID,136,VALID,1.07052,
2002-12-12, 03:00:00,VALID,919.51,VALID,0,VALID,93.9818,VALID,-0.101885,VALID,20.0479,VALID,138,VALID,1.13715,
2002-12-12, 03:01:00,VALID,919.516,VALID,0,VALID,93.894,VALID,-0.0509425,VALID,20.0703,VALID,111,VALID,0.717882,
2002-12-12, 03:02:00,VALID,919.527,VALID,0,VALID,93.7808,VALID,-0.0509425,VALID,20.0725,VALID,103,VALID,0.590666,
2002-12-12, 03:03:00,VALID,919.543,VALID,0,VALID,93.7847,VALID,-0.0509425,VALID,20.0797,VALID,112,VALID,0.569285,
2002-12-12, 03:04:00,VALID,919.547,VALID,0,VALID,93.7173,VALID,-0.101885,VALID,20.08,VALID,118,VALID,0.726128,
2002-12-12, 03:05:00,VALID,919.543,VALID,0,VALID,93.6499,VALID,-0.0849042,VALID,20.0862,VALID,109,VALID,0.607143,
2002-12-12, 03:06:00,VALID,919.535,VALID,0,VALID,93.7211,VALID,-0.0339617,VALID,20.0919,VALID,130,VALID,0.838816,
2002-12-12, 03:07:00,VALID,919.536,VALID,0,VALID,93.7096,VALID,0.0169808,VALID,20.1008,VALID,128,VALID,0.957532,
2002-12-12, 03:08:00,VALID,919.518,VALID,0,VALID,93.7274,VALID,0.0509425,VALID,20.0971,VALID,125,VALID,0.802148,
2002-12-12, 03:09:00,VALID,919.511,VALID,0,VALID,93.6677,VALID,0.0169808,VALID,20.1137,VALID,124,VALID,1.07874,
2002-12-12, 03:10:00,VALID,919.483,VALID,0,VALID,93.6092,VALID,0.0339617,VALID,20.1232,VALID,115,VALID,1.09334,
2002-12-12, 03:11:00,VALID,919.472,VALID,0,VALID,93.4604,VALID,0,VALID,20.1398,VALID,110,VALID,1.1865,
2002-12-12, 03:12:00,VALID,919.475,VALID,0,VALID,93.2099,VALID,0.0339617,VALID,20.1587,VALID,111,VALID,1.32953,
2002-12-12, 03:13:00,VALID,919.449,VALID,0,VALID,92.9111,VALID,0.0169808,VALID,20.2109,VALID,109,VALID,1.05168,
2002-12-12, 03:14:00,VALID,919.423,VALID,0,VALID,92.7483,VALID,0.0169808,VALID,20.2328,VALID,106,VALID,1.16153,
2002-12-12, 03:15:00,VALID,919.406,VALID,0,VALID,92.6249,VALID,0.0169808,VALID,20.2656,VALID,109,VALID,0.978906,
2002-12-12, 03:16:00,VALID,919.389,VALID,0,VALID,92.6377,VALID,0.0169808,VALID,20.2783,VALID,122,VALID,0.806641,
2002-12-12, 03:17:00,VALID,919.375,VALID,0,VALID,92.6758,VALID,0,VALID,20.288,VALID,139,VALID,0.85026,
2002-12-12, 03:18:00,VALID,919.369,VALID,0,VALID,92.733,VALID,0.0169808,VALID,20.2882,VALID,132,VALID,0.926309,
2002-12-12, 03:19:00,VALID,919.361,VALID,0,VALID,92.9339,VALID,0.0169808,VALID,20.2812,VALID,132,VALID,0.747944,
2002-12-12, 03:20:00,VALID,919.365,VALID,0,VALID,93.0242,VALID,0.0339617,VALID,20.2681,VALID,127,VALID,1.0421,
2002-12-12, 03:21:00,VALID,919.354,VALID,0,VALID,93.1285,VALID,0,VALID,20.2462,VALID,121,VALID,1.11339,
2002-12-12, 03:22:00,VALID,919.354,VALID,0,VALID,93.2061,VALID,-0.0849042,VALID,20.2348,VALID,121,VALID,1.37869,
2002-12-12, 03:23:00,VALID,919.354,VALID,0,VALID,93.3816,VALID,-0.0509425,VALID,20.2017,VALID,118,VALID,1.41817,
2002-12-12, 03:24:00,VALID,919.338,VALID,0,VALID,93.5583,VALID,-0.0509425,VALID,20.1856,VALID,111,VALID,1.36655,
2002-12-12, 03:25:00,VALID,919.353,VALID,0,VALID,93.6651,VALID,-0.0339617,VALID,20.1694,VALID,110,VALID,1.51448,
2002-12-12, 03:26:00,VALID,919.343,VALID,0,VALID,93.7897,VALID,0,VALID,20.1602,VALID,109,VALID,1.11895,
2002-12-12, 03:27:00,VALID,919.346,VALID,0,VALID,93.8368,VALID,-0.0339617,VALID,20.1471,VALID,108,VALID,1.3639,
2002-12-12, 03:28:00,VALID,919.316,VALID,0,VALID,93.9868,VALID,-0.0509425,VALID,20.1508,VALID,122,VALID,0.692779,
2002-12-12, 03:29:00,VALID,919.307,VALID,0,VALID,93.9525,VALID,0,VALID,20.1244,VALID,119,VALID,1.01445,
2002-12-12, 03:30:00,VALID,919.285,VALID,0,VALID,94.0733,VALID,-0.0679233,VALID,20.1282,VALID,88,VALID,0.672081,
2002-12-12, 03:31:00,VALID,919.264,VALID,0,VALID,94.1369,VALID,-0.0339617,VALID,20.1085,VALID,121,VALID,0.697098,
2002-12-12, 03:32:00,VALID,919.25,VALID,0,VALID,94.2348,VALID,-0.0509425,VALID,20.0852,VALID,114,VALID,0.460537,